Weather History for Thedford, NE

Change the Weather History Date:

Monday, May 20, 2013

  Actual Average (KLBF) Record (KLBF)
Temperature  
Mean Temperature 56 °F 59 °F  
Max Temperature 61 °F 73 °F 97 °F (1925)
Min Temperature 50 °F 46 °F 27 °F (1968)
Degree Days  
Heating Degree Days 10 7  
Month to date heating degree days 187  
Since 1 July heating degree days 6577  
Cooling Degree Days 0 1  
Month to date cooling degree days 10  
Year to date cooling degree days 13  
Growing Degree Days 6 (Base 50)    
Moisture  
Dew Point 49 °F    
Average Humidity 80    
Maximum Humidity 94    
Minimum Humidity 53    
Precipitation  
Precipitation 0.17 in 0.11 in 1.25 in (1916)
Month to date precipitation 1.98  
Year to date precipitation 6.14  
Snow  
Snow 0.00 in 0.00 in 0.00 in ()
Month to date snowfall 0.0  
Since 1 July snowfall 28.5  
Snow Depth -    
Sea Level Pressure  
Sea Level Pressure 29.67 in    
Wind  
Wind Speed 13 mph (WNW)    
Max Wind Speed 23 mph    
Max Gust Speed 33 mph    
Visibility 9 miles    
Events Rain    
T = Trace of Precipitation, MM = Missing Value Source: NWS Daily Summary

Daily Weather History Graph

Daily Weather History Graph

Search for Another Location

Airport:

Trip Planner

Search our weather history database for the weather conditions in past years. The results will help you decide how hot, cold, wet, or windy it might be!

Date:

Astronomy

May. 20, 2013 Rise Set
Actual Time 6:17 AM CDT 9:01 PM CDT
Civil Twilight 5:44 AM CDT 9:33 PM CDT
Nautical Twilight 5:03 AM CDT 10:14 PM CDT
Astronomical Twilight 4:17 AM CDT 11:01 PM CDT
Moon 4:06 PM CDT (5/20) 3:17 AM CDT (5/20)
Length of Visible Light 15h 49m
Length of Day
14h 44m
Waxing Gibbous, 75% of the Moon is Illuminated
May 20
Waxing Gibbous
May 24
Full
May 31
Last Quarter
Jun 8
New
Jun 16
First Quarter

Hourly Weather History & Observations

Time (CDT) Temp. Dew Point Humidity Pressure Visibility Wind Dir Wind Speed Gust Speed Precip Events Conditions
12:15 AM 55.4 °F 52.0 °F 88% 29.66 in 10.0 mi NNW 9.2 mph - 0.01 in Rain Light Rain
12:35 AM 55.4 °F 51.6 °F 87% 29.66 in 10.0 mi NNW 11.5 mph 16.1 mph 0.01 in Rain Light Rain
12:55 AM 54.7 °F 50.2 °F 85% 29.66 in 10.0 mi NW 8.1 mph - 0.02 in Rain Rain
1:15 AM 54.5 °F 51.1 °F 88% 29.67 in 10.0 mi WNW 4.6 mph - N/A Rain Light Rain
1:35 AM 54.9 °F 51.4 °F 88% 29.66 in 10.0 mi WNW 5.8 mph - N/A   Light Drizzle
1:55 AM 55.0 °F 51.1 °F 86% 29.66 in 10.0 mi WNW 4.6 mph - N/A   Overcast
2:15 AM 55.0 °F 51.3 °F 87% 29.66 in 10.0 mi WNW 6.9 mph - N/A   Overcast
2:35 AM 54.7 °F 50.4 °F 85% 29.66 in 10.0 mi NW 6.9 mph - N/A   Scattered Clouds
2:55 AM 54.0 °F 50.4 °F 88% 29.66 in 10.0 mi WNW 6.9 mph - N/A   Clear
3:15 AM 53.8 °F 49.3 °F 85% 29.67 in 10.0 mi West 9.2 mph - N/A   Scattered Clouds
3:35 AM 53.6 °F 48.7 °F 84% 29.66 in 10.0 mi West 9.2 mph - N/A   Mostly Cloudy
3:55 AM 53.1 °F 48.4 °F 84% 29.66 in 10.0 mi WNW 9.2 mph - N/A   Mostly Cloudy
4:35 AM 52.7 °F 48.2 °F 85% 29.65 in 10.0 mi West 10.4 mph - N/A   Overcast
4:55 AM 53.1 °F 47.8 °F 82% 29.65 in 10.0 mi West 11.5 mph - N/A   Overcast
5:15 AM 53.2 °F 48.2 °F 83% 29.65 in 10.0 mi West 11.5 mph - N/A   Overcast
5:35 AM 53.6 °F 48.2 °F 82% 29.65 in 10.0 mi West 11.5 mph - N/A   Overcast
5:55 AM 53.6 °F 48.2 °F 82% 29.65 in 10.0 mi West 16.1 mph 20.7 mph N/A   Overcast
6:15 AM 52.0 °F 48.2 °F 87% 29.66 in 4.0 mi West 13.8 mph 19.6 mph N/A   Heavy Drizzle
6:35 AM 52.5 °F 48.2 °F 85% 29.66 in 10.0 mi West 10.4 mph - N/A   Overcast
6:55 AM 52.3 °F 48.4 °F 86% 29.65 in 10.0 mi WSW 8.1 mph - N/A   Overcast
7:15 AM 52.3 °F 49.1 °F 89% 29.66 in 10.0 mi WSW 9.2 mph - N/A   Overcast
7:35 AM 53.6 °F 49.1 °F 85% 29.66 in 10.0 mi West 10.4 mph - N/A   Overcast
7:55 AM 54.0 °F 48.6 °F 82% 29.65 in 10.0 mi West 10.4 mph - N/A   Overcast
8:15 AM 54.1 °F 47.7 °F 79% 29.66 in 10.0 mi West 13.8 mph - N/A   Overcast
8:35 AM 54.5 °F 48.0 °F 79% 29.65 in 10.0 mi West 11.5 mph - N/A   Overcast
9:15 AM 55.9 °F 47.8 °F 74% 29.65 in 10.0 mi West 17.3 mph 20.7 mph N/A   Overcast
9:35 AM 58.1 °F 48.2 °F 70% 29.65 in 10.0 mi West 19.6 mph 24.2 mph N/A   Overcast
9:55 AM 58.8 °F 48.0 °F 67% 29.64 in 10.0 mi West 19.6 mph 26.5 mph N/A   Scattered Clouds
10:35 AM 60.4 °F 46.8 °F 61% 29.64 in 10.0 mi West 19.6 mph 26.5 mph N/A   Mostly Cloudy
10:55 AM 60.8 °F 46.0 °F 58% 29.63 in 10.0 mi West 23.0 mph 29.9 mph N/A   Overcast
11:15 AM 60.6 °F 46.2 °F 59% 29.63 in 10.0 mi WNW 20.7 mph 28.8 mph N/A   Overcast
11:35 AM 60.6 °F 45.7 °F 58% 29.64 in 10.0 mi West 20.7 mph 27.6 mph N/A   Overcast
11:55 AM 61.2 °F 44.4 °F 54% 29.63 in 10.0 mi WNW 20.7 mph 27.6 mph N/A   Overcast
12:15 PM 61.0 °F 43.5 °F 53% 29.63 in 10.0 mi WNW 20.7 mph 31.1 mph N/A   Overcast
12:35 PM 59.9 °F 43.7 °F 55% 29.64 in 10.0 mi WNW 23.0 mph 32.2 mph N/A   Overcast
12:55 PM 58.3 °F 46.9 °F 66% 29.64 in 10.0 mi West 19.6 mph 25.3 mph N/A Rain Light Rain
1:15 PM 58.6 °F 46.4 °F 64% 29.64 in 10.0 mi WNW 19.6 mph 32.2 mph N/A   Overcast
1:39 PM 57.2 °F 48.2 °F 72% 29.64 in 7.0 mi West 21.9 mph 28.8 mph N/A   Overcast
1:58 PM 55.4 °F 50.0 °F 82% 29.64 in 5.0 mi West 23.0 mph 32.2 mph N/A Rain Light Rain
2:18 PM 55.4 °F 51.8 °F 88% 29.64 in 7.0 mi West 20.7 mph 29.9 mph N/A Rain Light Rain
2:35 PM 56.5 °F 51.3 °F 83% 29.63 in 3.0 mi West 20.7 mph 24.2 mph N/A   Haze
2:39 PM 55.4 °F 51.8 °F 88% 29.64 in 2.5 mi West 21.9 mph - N/A Rain Rain
3:18 PM 57.2 °F 51.8 °F 82% 29.64 in 4.0 mi WNW 17.3 mph 27.6 mph N/A   Light Drizzle
3:38 PM 57.2 °F 51.8 °F 82% 29.63 in 5.0 mi WNW 20.7 mph 28.8 mph N/A   Haze
3:58 PM 57.2 °F 53.6 °F 88% 29.64 in 5.0 mi NW 20.7 mph 29.9 mph 0.01 in Rain Light Rain
4:20 PM 57.2 °F 50.0 °F 77% 29.64 in 10.0 mi NW 23.0 mph 33.4 mph N/A   Overcast
4:58 PM 55.4 °F 50.0 °F 82% 29.66 in 10.0 mi NW 21.9 mph 29.9 mph N/A   Drizzle
5:18 PM 55.4 °F 51.8 °F 88% 29.67 in 10.0 mi NW 16.1 mph 25.3 mph N/A Rain Light Rain
5:38 PM 53.6 °F 51.8 °F 94% 29.68 in 7.0 mi NW 19.6 mph 27.6 mph 0.01 in Rain Rain
5:58 PM 53.6 °F 51.8 °F 94% 29.68 in 5.0 mi NW 19.6 mph 24.2 mph 0.05 in Rain Rain
6:18 PM 53.6 °F 50.0 °F 88% 29.69 in 10.0 mi NW 18.4 mph 26.5 mph 0.02 in Rain Light Rain
6:38 PM 53.6 °F 50.0 °F 88% 29.70 in 10.0 mi NW 18.4 mph 27.6 mph 0.04 in Rain Light Rain
6:58 PM 53.6 °F 50.0 °F 88% 29.71 in 7.0 mi NW 19.6 mph 26.5 mph 0.05 in Rain Light Rain
7:19 PM 53.6 °F 50.0 °F 88% 29.71 in 7.0 mi NW 19.6 mph 24.2 mph 0.02 in Rain Light Rain
7:39 PM 53.6 °F 50.0 °F 88% 29.72 in 10.0 mi NW 17.3 mph 25.3 mph 0.03 in Rain Light Rain
7:59 PM 53.6 °F 50.0 °F 88% 29.73 in 10.0 mi NW 16.1 mph 24.2 mph N/A Rain Rain
8:18 PM 53.6 °F 48.2 °F 82% 29.73 in 10.0 mi NW 16.1 mph 24.2 mph 0.01 in Rain Rain
8:39 PM 53.6 °F 48.2 °F 82% 29.73 in 10.0 mi NW 17.3 mph 25.3 mph 0.01 in   Mostly Cloudy
8:58 PM 53.6 °F 48.2 °F 82% 29.74 in 10.0 mi NW 18.4 mph 23.0 mph 0.01 in   Mostly Cloudy
9:18 PM 53.6 °F 48.2 °F 82% 29.74 in 10.0 mi NW 15.0 mph 26.5 mph N/A   Mostly Cloudy
9:35 PM 52.2 °F 47.5 °F 84% 29.74 in 10.0 mi NW 13.8 mph - N/A   Mostly Cloudy
9:55 PM 51.8 °F 46.4 °F 82% 29.73 in 10.0 mi NW 15.0 mph 25.3 mph N/A   Mostly Cloudy
10:15 PM 52.0 °F 46.6 °F 82% 29.73 in 10.0 mi NW 13.8 mph - N/A   Mostly Cloudy
10:35 PM 52.3 °F 46.0 °F 79% 29.73 in 10.0 mi NW 18.4 mph 26.5 mph N/A   Mostly Cloudy
10:55 PM 51.3 °F 46.0 °F 82% 29.74 in 10.0 mi NW 13.8 mph 19.6 mph N/A   Scattered Clouds
11:15 PM 51.1 °F 45.5 °F 81% 29.75 in 10.0 mi NW 18.4 mph 24.2 mph N/A   Clear
11:35 PM 50.7 °F 44.8 °F 80% 29.75 in 10.0 mi WNW 11.5 mph 23.0 mph N/A   Clear
11:55 PM 50.4 °F 44.4 °F 80% 29.76 in 10.0 mi NW 17.3 mph 20.7 mph N/A   Clear